This is the latest recevied weather packets stored in our database for station/object F1AGU-13. If no packets are shown the sender has not sent any weather packets the latest 10 day(s).
| Time | Temp. | Humidity | Pressure | Rain* | Wind** | Luminosity | Snow |
|---|---|---|---|---|---|---|---|
| 1777638316 | 18.33° C | 67% | 1024.4 hPa | 0 mm | - | - | - |
| 1777637716 | 18.33° C | 69% | 1024.4 hPa | 0 mm | - | - | - |
| 1777637116 | 17.78° C | 70% | 1024.5 hPa | 0 mm | - | - | - |
| 1777636516 | 17.78° C | 70% | 1024.6 hPa | 0 mm | - | - | - |
| 1777635916 | 17.78° C | 71% | 1024.6 hPa | 0 mm | - | - | - |
| 1777635316 | 17.78° C | 67% | 1024.8 hPa | 0 mm | - | - | - |
| 1777634716 | 17.22° C | 68% | 1024.9 hPa | 0 mm | - | - | - |
| 1777634117 | 17.22° C | 71% | 1024.9 hPa | 0 mm | - | - | - |
| 1777633516 | 16.67° C | 72% | 1024.8 hPa | 0 mm | - | - | - |
| 1777632916 | 16.11° C | 70% | 1025 hPa | 0 mm | - | - | - |
| 1777632315 | 16.11° C | 72% | 1025.1 hPa | 0 mm | - | - | - |
| 1777631715 | 16.11° C | 74% | 1025.2 hPa | 0 mm | - | - | - |
| 1777631115 | 15.56° C | 75% | 1025.1 hPa | 0 mm | - | - | - |
| 1777630515 | 15.56° C | 74% | 1025.1 hPa | 0 mm | - | - | - |
| 1777629915 | 15.56° C | 72% | 1025.2 hPa | 0 mm | - | - | - |
| 1777629315 | 15° C | 74% | 1025 hPa | 0 mm | - | - | - |
| 1777628715 | 15° C | 73% | 1025 hPa | 0 mm | - | - | - |
| 1777628115 | 14.44° C | 75% | 1025.1 hPa | 0 mm | - | - | - |
| 1777627515 | 14.44° C | 77% | 1025.1 hPa | 0 mm | - | - | - |
| 1777626915 | 14.44° C | 77% | 1025 hPa | 0 mm | - | - | - |
| 1777626317 | 13.89° C | 81% | 1025 hPa | 0 mm | - | - | - |
| 1777625717 | 13.89° C | 83% | 1024.9 hPa | 0 mm | - | - | - |
| 1777625117 | 13.89° C | 85% | 1024.8 hPa | 0 mm | - | - | - |
| 1777624517 | 12.78° C | 86% | 1024.6 hPa | 0 mm | - | - | - |
| 1777623918 | 12.22° C | 87% | 1024.6 hPa | 0 mm | - | - | - |
* Rain latest hour (hover to see other rain measurements)
** Current wind speed in m/s (hover to see current wind gust speed)